Worthington, MN

2:43 PM CDT on May 26, 2018 (GMT -0500)
Worthington Municipal

Weather History for KOTG - December, 2013

Change the Weather History Date:

Monday, December 9, 2013

  Actual Average Record
Temperature  
Mean Temperature 2 °F -  
Max Temperature 12 °F 30 °F 51 °F (2006)
Min Temperature -7 °F 16 °F -16 °F (1972)
Degree Days  
Heating Degree Days 64    
Moisture  
Dew Point -10 °F    
Average Humidity 69    
Maximum Humidity 78    
Minimum Humidity 60    
Precipitation  
Precipitation 0.00 in - - ()
Sea Level Pressure  
Sea Level Pressure 30.02 in    
Wind  
Wind Speed 14 mph (WSW)    
Max Wind Speed 23 mph    
Max Gust Speed 30 mph    
Visibility 9 miles    
Events      
Averages and records for this station are not official NWS values.
T = Trace of Precipitation, MM = Missing Value Source: NWS Daily Summary

Daily Weather History Graph

Daily Weather History Graph

Search for Another Location

Airport or City:

Astronomy

Dec. 09, 2013 Rise Set
Actual Time 7:44 AM CST 4:45 PM CST
Civil Twilight 7:11 AM CST 5:17 PM CST
Nautical Twilight 6:35 AM CST 5:54 PM CST
Astronomical Twilight 6:00 AM CST 6:28 PM CST
Moon 12:26 PM CST (12/9) No Moon Set
Length of Visible Light 10h 06m
Length of Day
9h 01m
Waxing Crescent, 51% of the Moon is Illuminated
Dec 9
Waxing Crescent
Dec 17
Full
Dec 25
Last Quarter
Jan 1
New
Jan 7
First Quarter

Hourly Weather History & Observations

Time (CST) Temp. Windchill Dew Point Humidity Pressure Visibility Wind Dir Wind Speed Gust Speed Precip Events Conditions
12:15 AM -0.4 °F -14.7 °F -7.6 °F 72% 30.03 in 10.0 mi West 8.1 mph - N/A   Clear
12:35 AM -2.2 °F -15.6 °F -11.2 °F 66% 30.01 in 10.0 mi West 6.9 mph - N/A   Clear
12:55 AM -2.2 °F -12.5 °F -7.6 °F 78% 30.01 in 10.0 mi WSW 4.6 mph - N/A   Clear
1:15 AM -0.4 °F -18.4 °F -9.4 °F 66% 30.01 in 10.0 mi West 12.7 mph - N/A   Clear
1:35 AM -0.4 °F -19.9 °F -5.8 °F 78% 30.00 in 5.0 mi West 15.0 mph - N/A   Clear
1:55 AM -0.4 °F -19.9 °F -7.6 °F 72% 30.01 in 5.0 mi West 15.0 mph - N/A   Clear
2:15 AM -2.2 °F -19.9 °F -9.4 °F 71% 30.01 in 9.0 mi West 11.5 mph - N/A   Clear
2:35 AM -2.2 °F -22.2 °F -9.4 °F 71% 30.01 in 7.0 mi West 15.0 mph - N/A   Clear
2:55 AM -2.2 °F -22.2 °F -9.4 °F 71% 30.01 in 10.0 mi West 15.0 mph - N/A   Clear
3:15 AM -2.2 °F -21.5 °F -7.6 °F 78% 30.01 in 10.0 mi West 13.8 mph - N/A   Clear
3:35 AM -4.0 °F -23.0 °F -11.2 °F 71% 30.01 in 10.0 mi West 12.7 mph - N/A   Clear
3:55 AM -4.0 °F -26.4 °F -11.2 °F 71% 30.02 in 10.0 mi West 18.4 mph 21.9 mph N/A   Clear
4:15 AM -5.8 °F -24.4 °F -13.0 °F 71% 30.03 in 10.0 mi West 11.5 mph - N/A   Clear
4:35 AM -5.8 °F -25.2 °F -11.2 °F 77% 30.02 in 10.0 mi West 12.7 mph - N/A   Clear
4:55 AM -5.8 °F -27.5 °F -14.8 °F 65% 30.02 in 10.0 mi West 16.1 mph - N/A   Clear
5:15 AM -7.6 °F -31.1 °F -14.8 °F 71% 30.03 in 9.0 mi West 18.4 mph 23.0 mph N/A   Clear
5:35 AM -7.6 °F -32.3 °F -14.8 °F 71% 30.04 in 5.0 mi West 20.7 mph 27.6 mph N/A   Clear
5:55 AM -7.6 °F -30.5 °F -14.8 °F 71% 30.06 in 10.0 mi West 17.3 mph - N/A   Clear
6:15 AM -7.6 °F -29.8 °F -14.8 °F 71% 30.06 in 10.0 mi West 16.1 mph - N/A   Clear
6:35 AM -7.6 °F -29.1 °F -16.6 °F 65% 30.07 in 10.0 mi West 15.0 mph - N/A   Clear
6:55 AM -7.6 °F -31.1 °F -14.8 °F 71% 30.07 in 10.0 mi West 18.4 mph - N/A   Clear
7:15 AM -7.6 °F -30.5 °F -14.8 °F 71% 30.08 in 10.0 mi West 17.3 mph - N/A   Clear
7:35 AM -7.6 °F -28.3 °F -16.6 °F 65% 30.09 in 10.0 mi West 13.8 mph - N/A   Clear
7:55 AM -7.6 °F -26.6 °F -16.6 °F 65% 30.09 in 10.0 mi West 11.5 mph - N/A   Clear
8:15 AM -7.6 °F -28.3 °F -16.6 °F 65% 30.11 in 10.0 mi West 13.8 mph - N/A   Clear
8:35 AM -7.6 °F -29.1 °F -14.8 °F 71% 30.12 in 10.0 mi West 15.0 mph - N/A   Clear
8:55 AM -7.6 °F -29.1 °F -14.8 °F 71% 30.12 in 10.0 mi West 15.0 mph - N/A   Clear
9:15 AM -7.6 °F -31.7 °F -14.8 °F 71% 30.12 in 10.0 mi West 19.6 mph 24.2 mph N/A   Clear
9:35 AM -7.6 °F -31.7 °F -14.8 °F 71% 30.13 in 10.0 mi West 19.6 mph - N/A   Clear
9:55 AM -5.8 °F -26.8 °F -14.8 °F 65% 30.14 in 10.0 mi West 15.0 mph - N/A   Clear
10:15 AM -5.8 °F -28.2 °F -14.8 °F 65% 30.14 in 10.0 mi West 17.3 mph - N/A   Clear
10:35 AM -5.8 °F -28.2 °F -11.2 °F 77% 30.13 in 10.0 mi West 17.3 mph - N/A   Clear
10:55 AM -5.8 °F -27.5 °F -11.2 °F 77% 30.13 in 9.0 mi West 16.1 mph - N/A   Clear
11:15 AM -4.0 °F -25.2 °F -11.2 °F 71% 30.12 in 10.0 mi West 16.1 mph - N/A   Clear
11:35 AM -2.2 °F -23.5 °F - N/A% 30.11 in 10.0 mi West 17.3 mph - N/A   Clear
11:55 AM -2.2 °F -24.7 °F -9.4 °F 71% 30.11 in 8.0 mi West 19.6 mph - N/A   Clear
12:15 PM -2.2 °F -24.1 °F -9.4 °F 71% 30.11 in 10.0 mi West 18.4 mph - N/A   Clear
12:35 PM -2.2 °F -24.1 °F -11.2 °F 66% 30.10 in 9.0 mi West 18.4 mph - N/A   Clear
12:55 PM -0.4 °F -19.2 °F -9.4 °F 66% 30.10 in 10.0 mi West 13.8 mph 23.0 mph N/A   Clear
1:15 PM -0.4 °F -19.2 °F -11.2 °F 60% 30.10 in 10.0 mi West 13.8 mph - N/A   Clear
1:35 PM -0.4 °F -19.9 °F -9.4 °F 66% 30.09 in 10.0 mi West 15.0 mph - N/A   Clear
1:55 PM -0.4 °F -19.9 °F -9.4 °F 66% 30.09 in 10.0 mi WSW 15.0 mph - N/A   Clear
2:15 PM -0.4 °F -20.5 °F -11.2 °F 60% 30.08 in 10.0 mi WSW 16.1 mph 23.0 mph N/A   Clear
2:35 PM -0.4 °F -18.4 °F -9.4 °F 66% 30.08 in 10.0 mi WSW 12.7 mph 18.4 mph N/A   Clear
2:55 PM -0.4 °F -20.5 °F -11.2 °F 60% 30.07 in 10.0 mi SW 16.1 mph - N/A   Clear
3:15 PM -0.4 °F -20.5 °F -9.4 °F 66% 30.05 in 10.0 mi SW 16.1 mph - N/A   Clear
3:35 PM -0.4 °F -19.2 °F -9.4 °F 66% 30.04 in 10.0 mi SW 13.8 mph - N/A   Clear
3:55 PM -0.4 °F -21.2 °F -9.4 °F 66% 30.04 in 10.0 mi SW 17.3 mph - N/A   Clear
4:15 PM -0.4 °F -18.4 °F -9.4 °F 66% 30.05 in 10.0 mi SW 12.7 mph - N/A   Clear
4:35 PM -0.4 °F -18.4 °F -9.4 °F 66% 30.05 in 10.0 mi SW 12.7 mph - N/A   Clear
4:55 PM -0.4 °F -18.4 °F -9.4 °F 66% 30.04 in 10.0 mi SW 12.7 mph - N/A   Clear
5:15 PM -0.4 °F -19.9 °F -9.4 °F 66% 30.03 in 10.0 mi SSW 15.0 mph - N/A   Clear
5:35 PM -0.4 °F -19.2 °F -9.4 °F 66% 30.01 in 10.0 mi SSW 13.8 mph - N/A   Clear
5:55 PM -0.4 °F -19.9 °F -9.4 °F 66% 30.00 in 10.0 mi SW 15.0 mph 19.6 mph N/A   Clear
6:15 PM 1.4 °F -19.9 °F -7.6 °F 66% 29.99 in 10.0 mi SSW 19.6 mph - N/A   Clear
6:35 PM 1.4 °F -21.0 °F -7.6 °F 66% 29.98 in 9.0 mi SSW 21.9 mph - N/A   Clear
6:55 PM 1.4 °F -19.9 °F -7.6 °F 66% 29.97 in 10.0 mi SSW 19.6 mph 26.5 mph N/A   Clear
7:15 PM 1.4 °F -18.8 °F -7.6 °F 66% 29.96 in 10.0 mi South 17.3 mph - N/A   Clear
7:35 PM 1.4 °F -19.9 °F -7.6 °F 66% 29.95 in 10.0 mi South 19.6 mph - N/A   Clear
7:55 PM 1.4 °F -19.9 °F -7.6 °F 66% 29.93 in 10.0 mi South 19.6 mph - N/A   Clear
8:15 PM 1.4 °F -19.4 °F -7.6 °F 66% 29.92 in 10.0 mi South 18.4 mph 28.8 mph N/A   Clear
8:35 PM 3.2 °F -17.6 °F -5.8 °F 66% 29.91 in 8.0 mi South 19.6 mph - N/A   Clear
8:55 PM 3.2 °F -18.1 °F -5.8 °F 66% 29.88 in 10.0 mi South 20.7 mph - N/A   Clear
9:15 PM 3.2 °F -18.6 °F -2.2 °F 78% 29.87 in 9.0 mi SSW 21.9 mph 25.3 mph N/A   Clear
9:35 PM 5.0 °F -15.7 °F -2.2 °F 72% 29.86 in 9.0 mi SSW 20.7 mph 27.6 mph N/A   Clear
9:55 PM 6.8 °F -13.4 °F -2.2 °F 67% 29.84 in 10.0 mi SSW 20.7 mph 27.6 mph N/A   Clear
10:15 PM 6.8 °F -12.4 °F -0.4 °F 72% 29.83 in 10.0 mi SSW 18.4 mph - N/A   Mostly Cloudy
10:35 PM 8.6 °F -11.9 °F -0.4 °F 67% 29.82 in 10.0 mi SSW 23.0 mph - N/A   Overcast
10:55 PM 10.4 °F -9.5 °F 1.4 °F 67% 29.81 in 5.0 mi SSW 23.0 mph 29.9 mph N/A   Mostly Cloudy
11:15 PM 10.4 °F -9.1 °F 1.4 °F 67% 29.81 in 2.0 mi SW 21.9 mph - N/A   Mostly Cloudy
11:35 PM 10.4 °F -9.1 °F 1.4 °F 67% 29.80 in 5.0 mi SW 21.9 mph 26.5 mph N/A   Mostly Cloudy
11:55 PM 12.2 °F -6.7 °F 3.2 °F 67% 29.80 in 8.0 mi SW 21.9 mph - N/A   Overcast